Regional Weather Roundup
Issued by NWS New Orleans/Baton Rouge, LA

Home | Current Version | Previous Version | Graphics & Text | Print | Product List | Glossary On
Versions: 1 2 3 4 5 6 7 8 9 10 11 12 13 14 15 16 17 18 19 20 21 22 23 24 25 26 27 28 29 30 31 32 33 34 35 36 37 38 39 40 41 42 43 44 45 46 47 48 49 50
690
ASUS44 KLIX 310810
RWRLIX
NEW ORLEANS REGIONAL WEATHER ROUNDUP
NATIONAL WEATHER SERVICE NEW ORLEANS LA
300 AM CDT FRI OCT 31 2014

NOTE: "FAIR" INDICATES FEW OR NO CLOUDS BELOW 12,000 FEET WITH NO
      SIGNIFICANT WEATHER AND/OR OBSTRUCTIONS TO VISIBILITY.
      SKY/WX - SKY CONDITION AND SIGNIFICANT WEATHER.
      TMP - AIR TEMPERATURE.     DP    - DEWPOINT TEMPERATURE.
      RH  - RELATIVE HUMIDITY.   PRES  - PRESSURE.
      HI  - HEAT INDEX.          WCI   - WIND CHILL INDEX.

*  THESE STATIONS ARE NOT NWS OR FAA STATIONS AND ARE NOT UNDER
   NWS QUALITY CONTROL.

LAZ038-040-048-061>063-065>067-069-310900-
SOUTHEAST LOUISIANA

CITY           SKY/WX    TMP DP  RH WIND       PRES   REMARKS
N.O. AUDUBON     N/A     56  55  96 MISG        N/A
N.O. INTL ARPT PTCLDY    55  48  77 NW5       30.04F
N.O. LAKEFRONT CLEAR     66  49  54 N12       30.04F
N.O. DOWNTOWN*   N/A     63  45  51 CALM      30.04F
SLIDELL        CLEAR     47  42  83 CALM      30.03F
BATON ROUGE    PTCLDY    49  46  90 CALM      30.06F
BOOTHVILLE     CLEAR     66  50  56 VRB6      30.03S
BELLE CHASSE   CLEAR     49  46  90 CALM      30.04S
BOGALUSA*        N/A     45  42  89 CALM      30.06F
NEW ROADS*       N/A     47  46  94 CALM      30.07S
GONZALES*        N/A     51  51  97 N3        30.05F
HAMMOND*       CLEAR     48  45  87 CALM      30.06F
HOUMA*         CLEAR     54  47  78 CALM      30.05S
PORT FOURCHON* SUNNY     64  50  59 N9        30.07S

$$

MSZ070-080>082-310900-
SOUTHERN MISSISSIPPI

CITY           SKY/WX    TMP DP  RH WIND       PRES   REMARKS
MCCOMB         CLEAR     47  43  86 CALM      30.05F
GULFPORT       CLEAR     48  44  86 CALM      30.02F
BILOXI         CLEAR     55  44  67 NW5       30.02F
PASCAGOULA     CLEAR     41  39  93 CALM      30.03S

$$

COASTAL OBSERVATIONS
LAKE AND NEARSHORE STATIONS

STATION/POSITION TIME  TEMP    WIND        PRES    WAVE
                       AIR SEA DIR/SP/G            HT/PER
                 (UTC) (F)     (DEG/KT/KT) (MB)    (FT/S)
PASCAGOULA       0800   53     340/  7/  9 1015.9
WAVELAND YACHT   0800   61     360/  7/  8 1016.0
GRAND ISLE       0800   68 74  360/  9/ 12 1017.3
SOUTHWEST PASS   0800   70 77              1016.7
NEW CANAL        0800   67 70   10/ 10/ 11 1017.5
SHELL BEACH      0800   68 67   10/ 10/ 12 1016.7

OFFSHORE STATIONS

STATION/POSITION TIME  TEMP    WIND        PRES    WAVE
                       AIR SEA DIR/SP/G            HT/PER
                 (UTC) (F)     (DEG/KT/KT) (MB)    (FT/S)
64 S DAUPHIN ISL 0748   70 77  360/ 16/ 21 1016.0    3/ 5

$$




USA.gov is the U.S. government's official web portal to all federal, state and local government web resources and services.